[[{"header":{"parameterUnit":"m.s-1","parameterCategory":1,"la1":30.2991,"la2":30.254,"lo1":-89.0895,"lo2":-89.0444,"dy":0.0017,"dx":0.0017,"nx":28,"ny":28,"refTime":"2024-03-04T09:00:00:Z","depth":0,"parameterNumber":2,"parameterNumberName":"U-component_of_WINDS"},"data":[0,0,0,0,0,0,0,0,0,0,0,0,0,0,0,0,0,0,0,0,0,0,0,0,0,0,0,0,0,0,0,0,0,0,0,0,0,0,0,0,0,0,0,0,0,0,0,0,0,0,0,0,0,0,0,0,0,0,-5.9674,-5.9673,0,-5.9617,-5.9616,-5.9616,-5.9473,-5.947,-5.9467,-5.9464,-5.941,-5.9411,-5.9412,0,0,0,0,0,0,0,0,0,0,0,0,0,-5.9663,-5.9664,-5.9674,-5.9673,-5.9672,-5.9617,-5.9616,-5.9615,-5.9473,-5.947,-5.9466,-5.9463,-5.9409,-5.9411,-5.9413,0,0,0,0,0,0,0,0,0,0,0,0,0,-5.9643,-5.9664,-5.9674,-5.9595,-5.9587,-5.9617,-5.9616,-5.9615,-5.9474,-5.947,-5.9465,-5.9461,-5.9409,-5.9411,-5.9413,-5.9516,0,0,-5.9419,-5.942,0,0,0,0,0,0,0,0,-5.9644,-5.9644,-5.9607,-5.96,-5.9592,-5.9547,-5.9592,-5.9582,-5.9475,-5.9517,-5.9464,-5.9459,-5.9459,-5.9457,-5.9456,-5.9514,-5.9511,-5.9419,-5.942,-5.9421,-5.9422,0,0,0,0,0,0,0,-5.9646,-5.9645,-5.9651,-5.9607,-5.9597,-5.9563,-5.9555,-5.959,-5.9515,-5.9513,-5.9503,-5.9498,-5.9454,-5.9455,-5.9454,-5.9511,-5.9419,-5.9421,-5.9422,-5.9423,-5.9649,-5.9654,0,0,0,0,0,0,-5.9658,-5.9647,-5.9653,-5.965,-5.9607,-5.9567,-5.9558,-5.9566,-5.9514,-5.9501,-5.9502,-5.9491,-5.9454,-5.9452,-5.9452,-5.9569,-5.9421,-5.9423,-5.9424,-5.9645,-5.965,-5.9656,0,0,0,0,0,0,-5.9659,-5.966,-5.9655,-5.9646,-5.9642,-5.9572,-5.9582,-5.9568,-5.9568,-5.9505,-5.9491,-5.9516,-5.945,-5.9449,-5.9501,-5.9565,-5.9424,-5.9426,-5.9639,-5.9646,-5.9653,-5.9805,0,0,0,0,0,0,-5.9659,-5.9661,-5.9699,-5.9648,-5.9643,-5.9705,-5.9586,-5.957,-5.9571,-5.9557,-5.9514,-5.9503,-5.9446,-5.9499,-5.9503,-5.9565,-5.9428,-5.9633,-5.9642,-5.9651,-5.9794,-5.9816,-5.9835,0,0,0,0,0,-5.9659,-5.9745,-5.9702,-5.9703,-5.9689,-5.9709,-5.9707,-5.9638,-5.9577,-5.9615,-5.9574,-5.9505,-5.9557,-5.9505,-5.9509,-5.9573,-5.9629,-5.964,-5.965,-5.9784,-5.9812,-5.9835,0,0,0,0,0,0,-5.9807,-5.9737,-5.9688,-5.9759,-5.9741,-5.9685,-5.973,-5.967,-5.967,-5.9657,-5.9573,-5.9565,-5.9628,-5.9606,-5.9549,-5.967,-5.9582,-5.9594,-5.9682,-5.9708,-5.9728,-5.9732,-5.9429,0,0,0,0,0,-5.9848,-5.9869,-5.9806,-5.9876,-5.9869,-5.9802,-5.9808,-5.9757,-5.9735,-5.9727,-5.969,-5.9673,-5.9685,-5.9695,-5.9703,-5.979,-5.9778,-5.9835,-5.9856,-5.9874,-5.9885,-5.9929,-5.9953,-5.9691,-5.9691,-5.9691,0,0,-5.9933,-5.9897,-5.9915,-5.9905,-5.9884,-5.9909,-5.9796,-5.9827,-5.9844,-5.9732,-5.9778,-5.9751,-5.9726,-5.9796,-5.9825,-5.9779,-5.9955,-5.9888,-5.9902,-5.9904,-5.9942,-5.9967,-5.9989,-5.9698,-5.9697,-5.9696,0,0,-6.0099,-6.0075,-6.0129,-6.0111,-6.0081,-6.0036,-6.0049,-6.0002,-5.9979,-6.0024,-5.994,-5.996,-5.9984,-5.9969,-5.9965,-6.0126,-6.0062,-6.0131,-6.024,-6.0284,-6.0305,-6.0323,-6.038,-6.0401,-6.0143,-6.0143,-6.0144,0,-6.0209,-6.0241,-6.0165,-6.0201,-6.0199,-6.0097,-6.0152,-6.0138,-6.0114,-6.0115,-6.0064,-6.009,-6.0066,-6.0131,-6.017,-6.017,-6.0183,-6.0136,-6.0308,-6.0325,-6.034,-6.0394,-6.0416,-6.0152,-6.0151,-6.015,-6.0149,0,-6.0377,-6.0401,-6.0449,-6.0426,-6.0429,-6.0475,-6.0406,-6.0419,-6.0368,-6.0329,-6.0376,-6.0344,-6.0343,-6.0355,-6.0306,-6.0413,-6.0385,-6.0322,-6.0232,-6.0375,-6.0424,-6.0444,-6.0164,-6.0161,-6.0159,-6.0157,0,0,-6.0636,-6.0569,-6.0588,-6.0576,-6.0536,-6.0553,-6.0595,-6.0593,-6.0605,-6.0592,-6.0625,-6.0647,-6.0588,-6.0583,-6.0532,-6.057,-6.07,-6.0502,-6.05,-6.054,-6.0815,-6.0862,-6.0887,-6.0657,-6.066,-6.0663,-6.0817,0,-6.0792,-6.0857,-6.079,-6.0869,-6.089,-6.0793,-6.0829,-6.0809,-6.0774,-6.0787,-6.0748,-6.0765,-6.0686,-6.0683,-6.0716,-6.0677,-6.0754,-6.0665,-6.0687,-6.0689,-6.0696,-6.0913,-6.0963,-6.1109,-6.0836,-6.0839,-6.0841,0,-6.0983,-6.0977,-6.1058,-6.1012,-6.1018,-6.1052,-6.1044,-6.1058,-6.1034,-6.1005,-6.1,-6.0937,-6.0975,-6.0887,-6.0939,-6.088,-6.0885,-6.0867,-6.0871,-6.087,-6.0773,-6.0918,-6.1154,-6.1177,-6.0871,-6.0868,-6.0866,0,-6.1163,-6.1175,-6.1225,-6.1218,-6.1166,-6.1191,-6.1171,-6.1142,-6.1145,-6.1139,-6.114,-6.114,-6.114,-6.1141,-6.108,-6.1022,-6.1139,-6.1047,-6.1117,-6.1119,-6.1146,-6.1145,-6.1387,-6.1151,-6.115,-6.115,-6.115,0,-6.1344,-6.1398,-6.1305,-6.1335,-6.1392,-6.1315,-6.1374,-6.1344,-6.1319,-6.1343,-6.126,-6.1284,-6.1202,-6.1218,-6.1171,-6.1221,-6.1222,-6.12,-6.1187,-6.1207,-6.121,-6.1209,-6.1197,-6.1156,-6.1154,-6.1153,-6.1152,0,-6.1555,-6.1495,-6.1542,-6.1488,-6.1476,-6.1521,-6.1475,-6.1502,-6.146,-6.1492,-6.1495,-6.1431,-6.1445,-6.1384,-6.1389,-6.1357,-6.1431,-6.1401,-6.1439,-6.143,-6.1503,-6.1497,-6.1753,-6.1782,-6.1529,-6.1531,-6.1533,0,-6.1674,-6.1713,-6.1663,-6.1672,-6.1655,-6.1672,-6.1674,-6.16,-6.1606,-6.158,-6.1611,-6.1618,-6.162,-6.1648,-6.1602,-6.1605,-6.1574,-6.1664,-6.1574,-6.1593,-6.1575,-6.1573,-6.1576,-6.1682,-6.1685,-6.1688,-6.169,0,-6.1893,-6.1861,-6.1866,-6.1862,-6.1866,-6.186,-6.1848,-6.186,-6.178,-6.1792,-6.1805,-6.1806,-6.181,-6.1818,-6.1812,-6.1792,-6.1729,-6.1719,-6.1735,-6.1756,-6.1776,-6.1765,-6.1489,-6.1713,-6.1711,-6.1709,-6.1708,-6.1707,-6.206,-6.209,-6.2059,-6.2068,-6.2051,-6.2041,-6.2063,-6.2024,-6.2033,-6.2029,-6.1986,-6.2007,-6.1982,-6.1966,-6.1953,-6.1969,-6.1927,-6.1951,-6.1957,-6.1964,-6.1976,-6.1774,-6.1968,-6.1967,-6.1966,-6.1966,-6.1965,0,-6.2274,-6.2249,-6.2258,-6.2243,-6.225,-6.2188,-6.2171,-6.2182,-6.2202,-6.2183,-6.2186,-6.2201,-6.2208,-6.2164,-6.2166,-6.2187,-6.2158,-6.219,-6.2188,-6.2184,-6.2014,-6.1999,-6.2214,-6.2214,-6.2214,-6.2214,-6.2214,-6.2214,-6.2386,-6.2432,-6.2396,-6.2433,-6.2408,-6.2427,-6.2423,-6.2414,-6.2398,-6.2418,-6.2424,-6.2394,-6.2365,-6.2363,-6.2368,-6.2355,-6.2359,-6.2401,-6.2378,-6.222,-6.2196,-6.2173,-6.2159,-6.2403,-6.2403,-6.2546,-6.2548,-6.2549]},{"header":{"parameterUnit":"m.s-1","parameterCategory":1,"la1":30.2991,"la2":30.254,"lo1":-89.0895,"lo2":-89.0444,"dy":0.0017,"dx":0.0017,"nx":28,"ny":28,"refTime":"2024-03-04T09:00:00:Z","depth":0,"parameterNumber":3,"parameterNumberName":"V-component_of_WINDS"},"data":[0,0,0,0,0,0,0,0,0,0,0,0,0,0,0,0,0,0,0,0,0,0,0,0,0,0,0,0,0,0,0,0,0,0,0,0,0,0,0,0,0,0,0,0,0,0,0,0,0,0,0,0,0,0,0,0,0,0,-2.8344,-2.8346,0,-2.8472,-2.8474,-2.8475,-2.8433,-2.843,-2.8427,-2.8425,-2.8558,-2.8564,-2.857,0,0,0,0,0,0,0,0,0,0,0,0,0,-2.8065,-2.807,-2.8344,-2.8346,-2.8347,-2.8472,-2.8474,-2.8476,-2.8433,-2.843,-2.8427,-2.8424,-2.8556,-2.8564,-2.8571,0,0,0,0,0,0,0,0,0,0,0,0,0,-2.8189,-2.8072,-2.8344,-2.8341,-2.8342,-2.8472,-2.8474,-2.8476,-2.8434,-2.843,-2.8426,-2.8422,-2.8554,-2.8563,-2.8572,-2.8712,0,0,-2.86,-2.8604,0,0,0,0,0,0,0,0,-2.8182,-2.8199,-2.834,-2.8342,-2.8343,-2.8432,-2.8424,-2.8555,-2.8435,-2.8399,-2.8425,-2.842,-2.852,-2.8532,-2.8565,-2.8718,-2.8724,-2.8601,-2.8607,-2.861,-2.8613,0,0,0,0,0,0,0,-2.8174,-2.8194,-2.8395,-2.8342,-2.8344,-2.8334,-2.8347,-2.8449,-2.8482,-2.8402,-2.8399,-2.8415,-2.852,-2.8556,-2.8568,-2.8726,-2.8601,-2.8609,-2.8615,-2.8618,-2.9001,-2.9005,0,0,0,0,0,0,-2.8164,-2.8187,-2.8391,-2.8399,-2.8251,-2.8343,-2.8357,-2.8408,-2.848,-2.8487,-2.8418,-2.8413,-2.8542,-2.8557,-2.8572,-2.8741,-2.861,-2.8619,-2.8624,-2.8996,-2.9002,-2.9007,0,0,0,0,0,0,-2.8158,-2.8182,-2.8386,-2.8292,-2.8317,-2.8352,-2.8409,-2.8413,-2.8449,-2.8493,-2.8498,-2.8449,-2.854,-2.8559,-2.8677,-2.8745,-2.8623,-2.8632,-2.8991,-2.8998,-2.9004,-2.908,0,0,0,0,0,0,-2.815,-2.8181,-2.8234,-2.8294,-2.8322,-2.8489,-2.8413,-2.8418,-2.8464,-2.8458,-2.8523,-2.853,-2.8538,-2.8664,-2.8687,-2.8756,-2.8639,-2.8985,-2.8994,-2.9002,-2.9072,-2.9089,-2.9104,0,0,0,0,0,-2.814,-2.8251,-2.8237,-2.8262,-2.839,-2.8492,-2.8509,-2.8515,-2.847,-2.8524,-2.8552,-2.8528,-2.8734,-2.8676,-2.8702,-2.8775,-2.8981,-2.8991,-2.9002,-2.9065,-2.9086,-2.9103,0,0,0,0,0,0,-2.8199,-2.8258,-2.8244,-2.8377,-2.843,-2.8485,-2.8554,-2.8537,-2.8605,-2.8596,-2.8602,-2.8617,-2.8738,-2.8768,-2.8703,-2.8914,-2.8851,-2.8867,-2.889,-2.891,-2.8926,-2.8917,-2.8646,0,0,0,0,0,-2.8227,-2.8305,-2.8353,-2.8466,-2.8493,-2.8519,-2.8564,-2.8564,-2.862,-2.8642,-2.8679,-2.8734,-2.8811,-2.8862,-2.8936,-2.9076,-2.909,-2.9138,-2.9154,-2.9167,-2.9181,-2.9257,-2.928,-2.9041,-2.9041,-2.9041,0,0,-2.8287,-2.8329,-2.8378,-2.8479,-2.852,-2.8601,-2.8538,-2.8627,-2.8687,-2.8656,-2.8769,-2.8798,-2.8861,-2.899,-2.9049,-2.9019,-2.925,-2.918,-2.919,-2.9197,-2.927,-2.9293,-2.9313,-2.9048,-2.9047,-2.9046,0,0,-2.8437,-2.8476,-2.8574,-2.8617,-2.8679,-2.8696,-2.8719,-2.8777,-2.8795,-2.8909,-2.8887,-2.8959,-2.9092,-2.9137,-2.9178,-2.9344,-2.9324,-2.9368,-2.9451,-2.9525,-2.9544,-2.9561,-2.9621,-2.9642,-2.9381,-2.9382,-2.9382,0,-2.8503,-2.8624,-2.8627,-2.8717,-2.8762,-2.8737,-2.8836,-2.8877,-2.8962,-2.8994,-2.8958,-2.9124,-2.9164,-2.9304,-2.9344,-2.9378,-2.9405,-2.9361,-2.9541,-2.9558,-2.9573,-2.9631,-2.9653,-2.9387,-2.9386,-2.9386,-2.9385,0,-2.8702,-2.8786,-2.8858,-2.8939,-2.8992,-2.9087,-2.9105,-2.9158,-2.9153,-2.9174,-2.929,-2.9337,-2.942,-2.9453,-2.945,-2.9593,-2.9572,-2.9539,-2.9475,-2.9601,-2.9655,-2.9677,-2.9394,-2.9392,-2.939,-2.9389,0,0,-2.8894,-2.8974,-2.9001,-2.9037,-2.9104,-2.9169,-2.9263,-2.9343,-2.9389,-2.9447,-2.9526,-2.9639,-2.9608,-2.9654,-2.9656,-2.9721,-2.985,-2.968,-2.9682,-2.9711,-3.0011,-3.0036,-3.0061,-2.9837,-2.9841,-2.9845,-3.0006,0,-2.9049,-2.9213,-2.9218,-2.9368,-2.9446,-2.9422,-2.9504,-2.9554,-2.9575,-2.9645,-2.9668,-2.9748,-2.9702,-2.973,-2.9793,-2.9821,-2.9911,-2.9809,-2.9912,-2.9915,-2.9897,-3.0089,-3.0116,-3.0267,-3.0027,-3.0031,-3.0033,0,-2.9253,-2.9317,-2.9475,-2.953,-2.9563,-2.9636,-2.971,-2.9776,-2.9833,-2.9844,-2.9895,-2.9887,-2.9983,-2.9915,-3.0048,-2.9979,-3.0021,-3.0041,-3.0047,-3.0058,-2.9982,-3.0106,-3.0315,-3.0337,-3.0066,-3.0064,-3.0061,0,-2.9377,-2.9503,-2.9613,-2.9645,-2.9713,-2.9765,-2.9795,-2.9848,-2.9895,-2.996,-2.9991,-3.0066,-3.0107,-3.0166,-3.0178,-3.0128,-3.0312,-3.0245,-3.0324,-3.0324,-3.0365,-3.0362,-3.0584,-3.0391,-3.039,-3.039,-3.0389,0,-2.9551,-2.9648,-2.967,-2.9738,-2.9847,-2.9852,-2.9959,-2.9986,-3.0033,-3.0106,-3.009,-3.0159,-3.0171,-3.0244,-3.0254,-3.0363,-3.0382,-3.0394,-3.0396,-3.0396,-3.0394,-3.0424,-3.0414,-3.0396,-3.0395,-3.0393,-3.0392,0,-2.9709,-2.9727,-2.9846,-2.99,-2.9915,-2.9993,-3.0039,-3.0105,-3.0124,-3.0217,-3.0239,-3.0269,-3.0353,-3.0371,-3.0471,-3.0478,-3.0608,-3.0599,-3.0589,-3.0588,-3.0666,-3.0659,-3.0915,-3.0949,-3.0733,-3.0735,-3.0737,0,-2.9819,-2.9893,-2.9954,-3.0002,-3.0035,-3.0112,-3.016,-3.0168,-3.0219,-3.0289,-3.0346,-3.0428,-3.0494,-3.063,-3.0661,-3.0738,-3.0731,-3.0816,-3.0743,-3.074,-3.0733,-3.0729,-3.0737,-3.083,-3.0832,-3.0834,-3.0836,0,-3.0012,-3.0017,-3.0087,-3.0161,-3.0218,-3.0276,-3.0332,-3.0372,-3.0387,-3.0445,-3.0531,-3.0582,-3.0683,-3.0765,-3.0842,-3.0874,-3.0858,-3.0858,-3.0881,-3.0882,-3.0873,-3.088,-3.0628,-3.0853,-3.0851,-3.085,-3.0849,-3.0848,-3.015,-3.0215,-3.0268,-3.0346,-3.0389,-3.0441,-3.0505,-3.0531,-3.0602,-3.0685,-3.0685,-3.0779,-3.0833,-3.0934,-3.0971,-3.1045,-3.1019,-3.1051,-3.1059,-3.1067,-3.1075,-3.0861,-3.1059,-3.1058,-3.1058,-3.1057,-3.1057,0,-3.0343,-3.0376,-3.0448,-3.0525,-3.0587,-3.0565,-3.0625,-3.0679,-3.0761,-3.0812,-3.0878,-3.0976,-3.1055,-3.1092,-3.1171,-3.1223,-3.1218,-3.1243,-3.124,-3.1248,-3.1093,-3.1066,-3.1246,-3.1246,-3.1246,-3.1246,-3.1246,-3.1246,-3.0451,-3.0559,-3.0571,-3.0701,-3.0733,-3.0824,-3.086,-3.0908,-3.0949,-3.1059,-3.1125,-3.1148,-3.1195,-3.1276,-3.1348,-3.1357,-3.1387,-3.1417,-3.1423,-3.1278,-3.1259,-3.124,-3.1215,-3.1423,-3.1424,-3.1571,-3.1573,-3.1574]}]]